Weather History for Hallock, MN

Change the Weather History Date:

Monday, December 12, 2011

  Actual Average Record
Temperature  
Mean Temperature 16 °F -  
Max Temperature 21 °F 17 °F 52 °F (1939)
Min Temperature 12 °F 0 °F -24 °F (1958)
Degree Days  
Heating Degree Days 48    
Moisture  
Dew Point 17 °F    
Average Humidity 96    
Maximum Humidity 100    
Minimum Humidity 92    
Precipitation  
Precipitation 0.00 in - - ()
Sea Level Pressure  
Sea Level Pressure 30.29 in    
Wind  
Wind Speed 11 mph (North)    
Max Wind Speed 16 mph    
Max Gust Speed 18 mph    
Visibility 10 miles    
Events      
Averages and records for this station are not official NWS values.
T = Trace of Precipitation, MM = Missing Value Source: NWS Daily Summary

Daily Weather History Graph

Daily Weather History Graph

Search for Another Location

Airport:

Trip Planner

Search our weather history database for the weather conditions in past years. The results will help you decide how hot, cold, wet, or windy it might be!

Date:

Astronomy

Dec. 12, 2011 Rise Set
Actual Time 8:11 AM CST 4:31 PM CST
Civil Twilight 7:34 AM CST 5:08 PM CST
Nautical Twilight 6:54 AM CST 5:48 PM CST
Astronomical Twilight 6:15 AM CST 6:26 PM CST
Moon 6:48 PM CST (12/12) 9:40 AM CST (12/12)
Length of Visible Light 9h 33m
Length of Day
8h 19m
Waning Gibbous, 95% of the Moon is Illuminated
Dec 12
Waning Gibbous
Dec 17
Last Quarter
Dec 24
New
Jan 1
First Quarter
Jan 9
Full

Hourly Weather History & Observations

Time (CST) Temp. Windchill Dew Point Humidity Pressure Visibility Wind Dir Wind Speed Gust Speed Precip Events Conditions
12:14 AM 12.2 °F -1.0 °F 10.4 °F 92% 30.12 in 10.0 mi NNW 10.4 mph - N/A   Clear
12:33 AM 12.2 °F -1.8 °F 10.4 °F 92% 30.13 in 10.0 mi NNW 11.5 mph - N/A   Clear
1:14 AM 12.2 °F -0.2 °F 12.2 °F 100% 30.14 in 10.0 mi North 9.2 mph - N/A   Clear
1:34 AM 12.2 °F 1.7 °F 10.4 °F 92% 30.15 in 10.0 mi North 6.9 mph - N/A   Clear
1:54 AM 12.2 °F -0.2 °F 10.4 °F 92% 30.16 in 10.0 mi North 9.2 mph - N/A   Clear
2:14 AM 12.2 °F 1.7 °F 10.4 °F 92% 30.18 in 10.0 mi North 6.9 mph - N/A   Clear
2:54 AM 12.2 °F -1.8 °F 12.2 °F 100% 30.20 in 10.0 mi North 11.5 mph - N/A   Clear
3:14 AM 12.2 °F -1.8 °F 10.4 °F 92% 30.20 in 10.0 mi North 11.5 mph - N/A   Clear
3:34 AM 12.2 °F -1.8 °F 10.4 °F 92% 30.20 in 10.0 mi North 11.5 mph - N/A   Clear
3:54 AM 12.2 °F -1.0 °F 12.2 °F 100% 30.21 in 10.0 mi North 10.4 mph - N/A   Scattered Clouds
4:14 AM 14.0 °F 1.2 °F 14.0 °F 100% 30.21 in 10.0 mi North 10.4 mph - N/A   Overcast
4:34 AM 15.8 °F 3.4 °F 15.8 °F 100% 30.21 in 10.0 mi North 10.4 mph - N/A   Overcast
4:54 AM 17.6 °F 5.0 °F 15.8 °F 93% 30.22 in 10.0 mi North 11.5 mph - N/A   Overcast
5:14 AM 17.6 °F 5.0 °F 17.6 °F 100% 30.22 in 10.0 mi North 11.5 mph 16.1 mph N/A   Overcast
5:34 AM 17.6 °F 3.2 °F 17.6 °F 100% 30.22 in 10.0 mi North 15.0 mph - N/A   Overcast
5:54 AM 19.4 °F 5.5 °F 17.6 °F 93% 30.23 in 10.0 mi North 15.0 mph - N/A   Overcast
6:14 AM 19.4 °F 6.0 °F 19.4 °F 100% 30.23 in 10.0 mi North 13.8 mph - N/A   Overcast
6:34 AM 19.4 °F 6.0 °F 19.4 °F 100% 30.24 in 10.0 mi North 13.8 mph - N/A   Overcast
6:54 AM 21.2 °F 8.9 °F 19.4 °F 93% 30.25 in 10.0 mi North 12.7 mph 17.3 mph N/A   Overcast
7:14 AM 21.2 °F 9.5 °F 19.4 °F 93% 30.26 in 10.0 mi North 11.5 mph - N/A   Overcast
7:34 AM 21.2 °F 8.9 °F 19.4 °F 93% 30.26 in 10.0 mi North 12.7 mph - N/A   Overcast
8:14 AM 21.2 °F 8.9 °F 19.4 °F 93% 30.28 in 10.0 mi North 12.7 mph - N/A   Overcast
8:34 AM 21.2 °F 9.5 °F 19.4 °F 93% 30.29 in 10.0 mi North 11.5 mph - N/A   Overcast
8:54 AM 19.4 °F 6.0 °F 19.4 °F 100% 30.30 in 10.0 mi North 13.8 mph 18.4 mph N/A   Overcast
9:14 AM 19.4 °F 6.0 °F 19.4 °F 100% 30.31 in 10.0 mi North 13.8 mph - N/A   Overcast
9:34 AM 19.4 °F 6.0 °F 19.4 °F 100% 30.31 in 7.0 mi North 13.8 mph - N/A   Overcast
9:54 AM 19.4 °F 5.0 °F 19.4 °F 100% 30.31 in 7.0 mi North 16.1 mph - N/A   Overcast
10:14 AM 19.4 °F 6.6 °F 19.4 °F 100% 30.32 in 7.0 mi North 12.7 mph - N/A   Overcast
10:34 AM 19.4 °F 6.0 °F 19.4 °F 100% 30.33 in 7.0 mi North 13.8 mph - N/A   Overcast
10:54 AM 19.4 °F 6.0 °F 19.4 °F 100% 30.33 in 7.0 mi North 13.8 mph - N/A   Overcast
11:14 AM 19.4 °F 6.0 °F 19.4 °F 100% 30.33 in 7.0 mi NNW 13.8 mph - N/A   Overcast
11:34 AM 19.4 °F 7.2 °F 19.4 °F 100% 30.33 in 7.0 mi North 11.5 mph - N/A   Overcast
11:54 AM 21.2 °F 7.8 °F 19.4 °F 93% 30.33 in 10.0 mi NNW 15.0 mph - N/A   Overcast
12:14 PM 21.2 °F 8.9 °F 19.4 °F 93% 30.33 in 10.0 mi NNW 12.7 mph - N/A   Overcast
12:34 PM 21.2 °F 10.1 °F 19.4 °F 93% 30.33 in 10.0 mi North 10.4 mph - N/A   Overcast
12:54 PM 21.2 °F 9.5 °F 19.4 °F 93% 30.33 in 10.0 mi North 11.5 mph - N/A   Overcast
1:14 PM 21.2 °F 9.5 °F 19.4 °F 93% 30.33 in 10.0 mi North 11.5 mph - N/A   Overcast
1:34 PM 21.2 °F 8.3 °F 19.4 °F 93% 30.33 in 10.0 mi NNW 13.8 mph - N/A   Overcast
1:54 PM 21.2 °F 8.3 °F 19.4 °F 93% 30.33 in 10.0 mi NNW 13.8 mph - N/A   Overcast
2:15 PM 21.2 °F 9.5 °F 19.4 °F 93% 30.33 in 10.0 mi NNW 11.5 mph - N/A   Overcast
2:34 PM 21.2 °F 8.9 °F 19.4 °F 93% 30.34 in 10.0 mi North 12.7 mph - N/A   Overcast
2:54 PM 21.2 °F 8.9 °F 19.4 °F 93% 30.34 in 10.0 mi North 12.7 mph - N/A   Overcast
3:34 PM 19.4 °F 7.9 °F 17.6 °F 93% 30.35 in 10.0 mi North 10.4 mph - N/A   Overcast
3:54 PM 19.4 °F 7.2 °F 17.6 °F 93% 30.35 in 10.0 mi North 11.5 mph - N/A   Overcast
4:15 PM 19.4 °F 7.9 °F 17.6 °F 93% 30.36 in 10.0 mi North 10.4 mph - N/A   Overcast
4:34 PM 19.4 °F 8.6 °F 17.6 °F 93% 30.36 in 10.0 mi North 9.2 mph - N/A   Overcast
5:13 PM 17.6 °F 6.4 °F 17.6 °F 100% 30.37 in 10.0 mi North 9.2 mph - N/A   Overcast
5:34 PM 17.6 °F 6.4 °F 17.6 °F 100% 30.37 in 10.0 mi North 9.2 mph - N/A   Overcast
5:54 PM 17.6 °F 7.3 °F 17.6 °F 100% 30.38 in 10.0 mi North 8.1 mph - N/A   Overcast
6:15 PM 17.6 °F 8.2 °F 17.6 °F 100% 30.38 in 10.0 mi NNW 6.9 mph - N/A   Overcast
6:34 PM 17.6 °F 7.3 °F 17.6 °F 100% 30.38 in 10.0 mi NNW 8.1 mph - N/A   Overcast
6:54 PM 17.6 °F 7.3 °F 17.6 °F 100% 30.39 in 10.0 mi NNW 8.1 mph - N/A   Overcast
7:14 PM 17.6 °F 7.3 °F 17.6 °F 100% 30.39 in 10.0 mi North 8.1 mph - N/A   Overcast
7:54 PM 17.6 °F 6.4 °F 15.8 °F 93% 30.38 in 10.0 mi NNW 9.2 mph - N/A   Overcast
8:14 PM 15.8 °F 5.1 °F 14.0 °F 93% 30.38 in 10.0 mi North 8.1 mph - N/A   Overcast
8:35 PM 15.8 °F 7.2 °F 14.0 °F 93% 30.38 in 10.0 mi North 5.8 mph - N/A   Overcast
8:54 PM 17.6 °F 10.7 °F 15.8 °F 93% 30.37 in 10.0 mi North 4.6 mph - N/A   Overcast
9:14 PM 17.6 °F 10.7 °F 15.8 °F 93% 30.37 in 10.0 mi North 4.6 mph - N/A   Overcast
9:35 PM 17.6 °F 9.3 °F 15.8 °F 93% 30.38 in 10.0 mi NNW 5.8 mph - N/A   Overcast
9:54 PM 17.6 °F 10.7 °F 15.8 °F 93% 30.38 in 10.0 mi NNW 4.6 mph - N/A   Overcast
10:14 PM 17.6 °F 10.7 °F 15.8 °F 93% 30.38 in 10.0 mi NNW 4.6 mph - N/A   Overcast
10:35 PM 17.6 °F 12.3 °F 15.8 °F 93% 30.38 in 10.0 mi NNW 3.5 mph - N/A   Overcast
10:54 PM 17.6 °F 8.2 °F 15.8 °F 93% 30.39 in 10.0 mi NNW 6.9 mph - N/A   Overcast
11:14 PM 17.6 °F 9.3 °F 15.8 °F 93% 30.39 in 10.0 mi North 5.8 mph - N/A   Overcast
11:34 PM 17.6 °F 12.3 °F 15.8 °F 93% 30.38 in 10.0 mi NNW 3.5 mph - N/A   Overcast
11:54 PM 17.6 °F 12.3 °F 15.8 °F 93% 30.40 in 10.0 mi NNW 3.5 mph - N/A   Overcast